Regional Weather Roundup
Issued by NWS

Home | Current Version | Previous Version | Text Only | Print | Product List | Glossary Off
Versions: 1 2 3 4 5 6 7 8 9 10 11 12 13 14 15 16 17 18 19 20 21 22 23 24 25 26 27 28 29 30 31 32 33 34 35 36 37 38 39 40 41 42 43 44 45 46 47 48 49 50

608
ASUS43 KMPX 260001
RWRMN
WEATHER ROUNDUP FOR MINNESOTA
NATIONAL WEATHER SERVICE TWIN CITIES/CHANHASSEN MN
700 PM CDT WED MAY 25 2016


NOTE: "FAIR" INDICATES FEW OR NO CLOUDS BELOW 12,000 FEET WITH NO
SIGNIFICANT WEATHER AND/OR OBSTRUCTIONS TO VISIBILITY. N/A MEANS
CURRENT SKY AND/OR WEATHER CONDITIONS ARE NOT AVAILABLE.

MNZ060>063-068>070-260100-
   Twin Cities Metro

CITY           SKY/WX    TMP DP  RH WIND       PRES   REMARKS
TWIN CITIES    CLOUDY    75  63  66 E5        29.79S
6HR MIN TEMP:  71; 6HR MAX TEMP:  76; 6HR PCP: TRACE;

ST PAUL        CLOUDY    72  63  73 SE5       29.80S
CRYSTAL        SUNNY     74  61  63 SE6       29.78R
EDEN PRAIRIE   SUNNY     77  63  61 CALM      29.78S
6HR MIN TEMP:  70; 6HR MAX TEMP:  77; 6HR PCP:  0.03;

SOUTH ST PAUL  CLOUDY    74  62  68 CALM      29.80S
LAKE ELMO      FAIR      72  63  73 CALM      29.82S
$$
MNZ001>005-007-008-013>017-022>024-027-028-260100-
   Northwest Minnesota

CITY           SKY/WX    TMP DP  RH WIND       PRES   REMARKS
BEMIDJI        CLOUDY    62  57  84 SE17G25   29.77S
HALLOCK        CLOUDY    59  57  94 NE14      29.73F
ROSEAU         LGT RAIN  59  54  82 E17       29.76F
WARROAD        RAIN      59  55  88 E14G20    29.78F
THIEF RVR FALL CLOUDY    61  55  82 SE9G21    29.70F
CROOKSTON      CLOUDY    63  63 100 SE12      29.66F
FOSSTON        CLOUDY    61  59  94 S12       29.71S
DETROIT LAKES  MOSUNNY   68  61  77 W12       29.76R
MOORHEAD       MOSUNNY   66  61  82 W13       29.73S
PARK RAPIDS    CLOUDY    67  60  78 SE10      29.76F
MAHNOMEN       CLOUDY    69  64  84 SW20      29.70S
$$
MNZ006-009>011-018-025>026-260100-
   North Central Minnesota

CITY           SKY/WX    TMP DP  RH WIND       PRES   REMARKS
BAUDETTE       RAIN      60  57  89 E15G22    29.78F FOG
FLAG ISLAND    RAIN      61  55  82 E8        29.82S
INTL FALLS     LGT RAIN  62  55  77 E9        29.84F
6HR MIN TEMP:  62; 6HR MAX TEMP:  67; 6HR PCP:  0.01;

WASKISH        CLOUDY    59  57  94 SE14G20   29.77S
BIG FORK       CLOUDY    61  55  82 SE9       29.82S
LONGVILLE      CLOUDY    61  55  82 SE9       29.81S
GRAND RAPIDS   CLOUDY    59  55  87 E12G17    29.85R
CRANE LAKE     CLOUDY    63  48  59 CALM      29.89F
ORR            RAIN      59  54  82 CALM      29.85S
COOK           LGT RAIN  61  55  82 E3        29.88F
WALKER         CLOUDY    61  56  83 SE10G16   29.78S
$$
MNZ012-019>021-037-260100-
   Northeast Minnesota

CITY           SKY/WX    TMP DP  RH WIND       PRES   REMARKS
DULUTH         CLOUDY    50  48  93 E17       29.89F
6HR MIN TEMP:  49; 6HR MAX TEMP:  53; 6HR PCP:  0.17;

ELY            CLOUDY    61  50  67 SE12      29.93R
HIBBING        CLOUDY    55  53  93 SE16G23   29.88R
EVELETH        CLOUDY    54  52  94 E7        29.91S
DULUTH HARBOR  CLOUDY    45  45 100 NE24      29.92F
TWO HARBORS    LGT RAIN  54  48  82 E17G26    29.91F
SILVER BAY     RAIN      52  48  87 N9        29.96R
GRAND MARAIS     N/A     50  43  77 NE10      29.95F
G MARAIS ARPRT CLOUDY    57  43  58 NE10      29.98F HAZE
$$
MNZ029>031-032-039>041-046>048-054>057-064-260100-
   West Central Minnesota

CITY           SKY/WX    TMP DP  RH WIND       PRES   REMARKS
FERGUS FALLS   SUNNY     70  61  73 W10       29.71F
WHEATON        SUNNY     75  64  69 NW6       29.75S
MORRIS         MOSUNNY   77  57  50 W14       29.74S
ALEXANDRIA     MOSUNNY   74  57  55 SW10      29.77S
ELBOW LAKE     FAIR      73  62  68 NW9       29.75S
WADENA         PTSUNNY   70  63  78 SE8       29.76S
GLENWOOD       SUNNY     75  57  53 SW10G16   29.77S
APPLETON       SUNNY     81  55  41 W13       29.74S
BENSON         SUNNY     77  55  47 NW10      29.75S
ORTONVILLE     SUNNY     77  55  47 W10       29.75S
MADISON        SUNNY     79  55  44 W10       29.75F
WILLMAR        FAIR      79  61  53 SW10      29.77S
$$
MNZ033>034-036-042>043-049>051-058-059-260100-
   Central Minnesota

CITY           SKY/WX    TMP DP  RH WIND       PRES   REMARKS
ST CLOUD       PTSUNNY   73  65  75 SE5       29.79R
6HR MIN TEMP:  64; 6HR MAX TEMP:  75; 6HR PCP: TRACE;

SAUK CENTRE    CLOUDY    76  64  65 W10G16    29.77R
PAYNESVILLE    MOSUNNY   77  63  63 S9        29.77S
AITKIN         CLOUDY    61  52  72 E8        29.83R
PINE RIVER     CLOUDY    59  55  88 SE8       29.84S
BRAINERD       CLOUDY    60  57  89 E8G18     29.81S
STAPLES        CLOUDY    70  61  73 E7        29.77S
LONG PRAIRIE   CLOUDY    66  63  88 CALM      29.78R
LITTLE FALLS   CLOUDY    66  59  77 W8        29.80R
LITCHFIELD     SUNNY     79  66  65 SE3       29.78S
BUFFALO        PTSUNNY   76  65  67 E6        29.80R
MAPLE LAKE     MOSUNNY   77  67  71 S5        29.80S
HUTCHINSON     CLOUDY    77  66  68 S5        29.79S
$$
MNZ037-044-045-052-053-260100-
   East Central Minnesota

CITY           SKY/WX    TMP DP  RH WIND       PRES   REMARKS
PRINCETON      PTSUNNY   72  64  78 NE9       29.81R
MORA           CLOUDY    61  55  82 E8G16     29.86R
CAMBRIDGE      CLOUDY    68  57  68 NE7       29.81R
RUSH CITY      CLOUDY    62  59  88 NE9       29.84R
MOOSE LAKE     CLOUDY    48  46  93 E5        29.87R
HINCKLEY       CLOUDY    59  55  88 NE7       29.86R
CLOQUET        CLOUDY    48  46  93 E17G24    29.89S
MCGREGOR       CLOUDY    55  52  88 E12G18    29.86S
$$
MNZ071>073-080-081-089-090-097-098-260100-
   Southwest Minnesota

CITY           SKY/WX    TMP DP  RH WIND       PRES   REMARKS
MONTEVIDEO     MOSUNNY   81  55  41 W7        29.77F
GRANITE FALLS  MOSUNNY   81  59  46 S16       29.77F
CANBY          SUNNY     80  60  49 SW7       29.77S
MARSHALL       SUNNY     78  59  51 SW12      29.78S
REDWOOD FALLS  MOSUNNY   78  58  49 SW13      29.77S
OLIVIA         SUNNY     77  57  50 SW12      29.76S
PIPESTONE      SUNNY     77  59  53 W7        29.80F
WINDOM         SUNNY     79  57  47 CALM      29.80F
WORTHINGTON    SUNNY     77  60  55 W6        29.82R
JACKSON        SUNNY     79  54  41 SW6       29.82S
TRACY          MOSUNNY   79  60  52 W8        29.79S
SLAYTON        SUNNY     77  58  51 SW12      29.81F
$$
MNZ065>067-074>077-082>085-091>093-260100-
   South Central Minnesota

CITY           SKY/WX    TMP DP  RH WIND       PRES   REMARKS
MANKATO        MOSUNNY   81  61  50 W8        29.79R
NEW ULM        SUNNY     79  57  47 SW12      29.78S
ST JAMES       SUNNY     75  54  46 W10       29.80S
FAIRMONT       MOSUNNY   81  52  36 W13       29.80R
GLENCOE        SUNNY     77  66  69 S5        29.78S
FARIBAULT      SUNNY     79  63  57 W6        29.80S
OWATONNA       SUNNY     79  63  57 W5        29.80S
WASECA         SUNNY     77  61  57 W10       29.80S
ALBERT LEA     MOSUNNY   81  57  44 SW8       29.80S
$$
MNZ078>079-086>088-094>096-260100-
   Southeast Minnesota

CITY           SKY/WX    TMP DP  RH WIND       PRES   REMARKS
ROCHESTER      PTSUNNY   74  67  78 S13       29.82S
6HR MIN TEMP:  64; 6HR MAX TEMP:  74; 6HR PCP:  0.80;

RED WING       MOSUNNY   73  64  73 CALM      29.79S
STANTON        CLOUDY    77  62  60 W5        29.78F
DODGE CENTER   CLOUDY    75  64  69 SW8       29.82S
WINONA         MOSUNNY   75  63  64 W3        29.81S
AUSTIN         SUNNY     75  63  64 S8        29.81S
PRESTON        SUNNY     74  64  70 SW7       29.84S
$$
ABBREVIATIONS USED IN REMARKS
   TC - TEMPERATURES IN CELSIUS
  WCI - WIND CHILL INDEX
   HX - HEAT INDEX
  VSB - VISIBILITY
$$




USA.gov is the U.S. government's official web portal to all federal, state and local government web resources and services.